Regional Weather Roundup
Issued by NWS

Home | Current Version | Previous Version | Text Only | Print | Product List | Glossary Off
Versions: 1 2 3 4 5 6 7 8 9 10 11 12 13 14 15 16 17 18 19 20 21 22 23 24 25 26 27 28 29 30 31 32 33 34 35 36 37 38 39 40 41 42 43 44 45 46 47 48 49 50

000
ASUS43 KMPX 281701
RWRMN
WEATHER ROUNDUP FOR MINNESOTA
NATIONAL WEATHER SERVICE TWIN CITIES/CHANHASSEN MN
1200 PM CDT THU MAY 28 2015


NOTE: "FAIR" INDICATES FEW OR NO CLOUDS BELOW 12,000 FEET WITH NO
SIGNIFICANT WEATHER AND/OR OBSTRUCTIONS TO VISIBILITY. N/A MEANS
CURRENT SKY AND/OR WEATHER CONDITIONS ARE NOT AVAILABLE.

MNZ060>063-068>070-281800-
   Twin Cities Metro

CITY           SKY/WX    TMP DP  RH WIND       PRES   REMARKS
TWIN CITIES    MOSUNNY   81  52  36 SW13G22   30.05S
ST PAUL        SUNNY     82  57  42 VRB5      30.04F
CRYSTAL        SUNNY     83  53  35 SW15G24   30.03S
BLAINE         PTSUNNY   82  54  36 S13G20    30.04S
LAKEVILLE      MOSUNNY   79  55  44 SW9       30.06S
EDEN PRAIRIE   SUNNY     80  55  42 SW14      30.04S
SOUTH ST PAUL  SUNNY     81  52  36 SW9G21    30.05F
LAKE ELMO      FAIR      81  59  47 S14       30.07S
$$
MNZ001>005-007-008-013>017-022>024-027-028-281800-
   Northwest Minnesota

CITY           SKY/WX    TMP DP  RH WIND       PRES   REMARKS
BEMIDJI        CLOUDY    63  56  78 SE8       29.94F
HALLOCK        PTSUNNY   66  63  88 SE12      29.87F
ROSEAU         CLOUDY    61  54  77 SE9       29.91S
WARROAD        CLOUDY    59  55  88 SE7       29.92F
THIEF RVR FALL CLOUDY    63  59  88 SE9       29.91S
CROOKSTON      MOSUNNY   68  63  83 S9        29.89S
FOSSTON        LGT RAIN  61  57  88 E3        29.91F
DETROIT LAKES  CLOUDY    73  59  60 SW21G30   29.93F
MOORHEAD       PTSUNNY   73  61  64 S13G20    29.89F
PARK RAPIDS    PTSUNNY   82  56  40 S16G28    29.94F
MAHNOMEN       CLOUDY    66  59  78 SE6       29.91F
$$
MNZ006-009>011-018-025>026-281800-
   North Central Minnesota

CITY           SKY/WX    TMP DP  RH WIND       PRES   REMARKS
BAUDETTE       LGT RAIN  56  54  93 SE12      29.93F FOG
FLAG ISLAND    DRIZZLE   55  54  94 E10G16    29.90F
INTL FALLS     LGT RAIN  56  53  90 SE8       29.99F
WASKISH        CLOUDY    57  55  94 CALM      29.97S
BIG FORK       CLOUDY    66  54  63 E7        29.98F
LONGVILLE      PTSUNNY   75  55  50 S13       29.96F
GRAND RAPIDS   PTSUNNY   66  52  59 SE8       29.99F
CRANE LAKE     LGT RAIN  55  54  94 CALM      30.04R
COOK           CLOUDY    61  52  72 SE7       30.02S
WALKER         FAIR      69  56  63 E3        29.95F
$$
MNZ012-019>021-037-281800-
   Northeast Minnesota

CITY           SKY/WX    TMP DP  RH WIND       PRES   REMARKS
DULUTH         PTSUNNY   50  44  80 SE14      30.08S
HIBBING        CLOUDY    66  51  58 S9        30.02F
EVELETH        CLOUDY    64  50  59 SE9       30.03F
DULUTH HARBOR  FOG       43  41  93 NE18      30.13S VSB 1
TWO HARBORS    CLOUDY    54  46  76 E14       30.08S
SILVER BAY     CLOUDY    46  45  93 E12G18    30.11R
GRAND MARAIS     N/A     45  40  82 NE12G20   30.13
G MARAIS ARPRT MOSUNNY   59  43  55 E10G17    30.11F
$$
MNZ029>031-032-039>041-046>048-054>057-064-281800-
   West Central Minnesota

CITY           SKY/WX    TMP DP  RH WIND       PRES   REMARKS
FERGUS FALLS   PTSUNNY   75  57  53 SW24G31   29.93F
WHEATON        PTSUNNY   72  57  60 S20G28    29.94F
MORRIS         PTSUNNY   73  59  60 S22       29.96S
ALEXANDRIA     MOSUNNY   77  55  46 S21G30    30.00S
ELBOW LAKE     FAIR      74  58  58 S25G33    29.95F
WADENA         MOSUNNY   79  55  44 SW17G28   29.95S
GLENWOOD       MOSUNNY   73  54  49 S21G26    30.00F
APPLETON       CLOUDY    73  55  53 S17       29.97F
BENSON         PTSUNNY   77  54  44 SW16G22   29.99S
ORTONVILLE     CLOUDY    70  59  68 S14G21    29.96S
MADISON        CLOUDY    70  57  64 S21       29.98S
WILLMAR        FAIR      82  52  34 SW18G24   30.01F
$$
MNZ033>034-036-042>043-049>051-058-059-281800-
   Central Minnesota

CITY           SKY/WX    TMP DP  RH WIND       PRES   REMARKS
ST CLOUD       MOSUNNY   80  54  40 SW18G25   30.01S
SAUK CENTRE    FAIR      79  53  39 S22G31    30.00S
PAYNESVILLE    MOSUNNY   76  51  41 S17G31    30.02S
AITKIN         PTSUNNY   75  57  53 S9        29.98F
PINE RIVER     PTSUNNY   79  61  53 S10G23    29.99F
BRAINERD       PTSUNNY   76  57  51 S15G24    29.99S
STAPLES        MOSUNNY   79  55  44 S12G26    29.97F
LONG PRAIRIE   FAIR      79  52  38 S20G30    30.00S
LITTLE FALLS   MOSUNNY   77  52  41 S14       30.00F
LITCHFIELD     MOSUNNY   82  54  36 SE7G16    30.02F
BUFFALO        SUNNY     80  53  39 S9G18     30.04S
MAPLE LAKE     SUNNY     81  58  45 S8        30.04S
$$
MNZ037-044-045-052-053-281800-
   East Central Minnesota

CITY           SKY/WX    TMP DP  RH WIND       PRES   REMARKS
PRINCETON      MOSUNNY   82  54  36 S12G20    30.02F
MORA           PTSUNNY   77  55  47 SW7       30.04S
CAMBRIDGE      MOSUNNY   82  61  47 SW12      30.01F
RUSH CITY      MOSUNNY   80  54  41 S10       30.03F
MOOSE LAKE     PTSUNNY   66  50  55 E3        30.03S
HINCKLEY       FAIR      77  61  57 S6        30.03F
CLOQUET        PTSUNNY   52  43  71 E10       30.07S
MCGREGOR       PTSUNNY   72  54  53 E7        30.02S
$$
MNZ071>073-080-081-089-090-097-098-281800-
   Southwest Minnesota

CITY           SKY/WX    TMP DP  RH WIND       PRES   REMARKS
MONTEVIDEO     CLOUDY    75  54  46 W16G25    30.01S
GRANITE FALLS  PTSUNNY   77  53  43 SW15      30.02F
CANBY          CLOUDY    67  57  69 SW13      30.00F
MARSHALL       CLOUDY    77  52  41 SW15G28   30.01S
REDWOOD FALLS  MOSUNNY   82  51  34 SW23G29   30.01F
OLIVIA         PTSUNNY   77  46  33 S20G31    30.01F
PIPESTONE      PTSUNNY   73  54  49 S18       30.03F
WINDOM         MOSUNNY   79  48  34 S17G32    30.04S
WORTHINGTON    MOSUNNY   79  50  36 S18G26    30.03F
JACKSON        MOSUNNY   79  52  38 S17G24    30.06F
TRACY          PTSUNNY   80  51  36 SW22G30   30.02S
SLAYTON        PTSUNNY   79  47  32 S18G26    30.03F
$$
MNZ065>067-074>077-082>085-091>093-281800-
   South Central Minnesota

CITY           SKY/WX    TMP DP  RH WIND       PRES   REMARKS
MANKATO        MOSUNNY   81  54  39 SW17      30.05F
NEW ULM        MOSUNNY   79  55  44 S13G20    30.03F
FAIRMONT       MOSUNNY   79  52  38 S22       30.05F
GLENCOE        SUNNY     80  58  46 S15       30.04S
FARIBAULT      MOSUNNY   81  57  44 S10G17    30.07S
OWATONNA       MOSUNNY   81  54  39 S14G22    30.08S
WASECA         MOSUNNY   79  54  41 S20       30.08F
ALBERT LEA     MOSUNNY   79  57  47 S13G20    30.08F
$$
MNZ078>079-086>088-094>096-281800-
   Southeast Minnesota

CITY           SKY/WX    TMP DP  RH WIND       PRES   REMARKS
ROCHESTER      MOSUNNY   78  60  53 S18       30.11F
RED WING       MOSUNNY   82  52  34 S10G16    30.06S
STANTON        MOSUNNY   80  55  42 SW14      30.06S
DODGE CENTER   MOSUNNY   79  57  47 S18G25    30.10S
WINONA         MOSUNNY   79  59  50 S5        30.10F
AUSTIN         MOSUNNY   75  61  60 S12       30.10S
PRESTON        MOSUNNY   77  58  51 S13       30.12F
$$
ABBREVIATIONS USED IN REMARKS
   TC - TEMPERATURES IN CELSIUS
  WCI - WIND CHILL INDEX
   HX - HEAT INDEX
  VSB - VISIBILITY
$$


USA.gov is the U.S. government's official web portal to all federal, state and local government web resources and services.